Location: Caseificio
(44.7500°N, 11.0500°E)
Time: 16:24:06
(UTC+00:00)

Cosmos 1371 Rocket - Pass Details

Date: 26 May 2022
Orbit: 753 x 790 km, 74.0° (Epoch: 06 July)

Event Time Altitude Azimuth Distance (km) Brightness Sun altitude
Exits shadow 02:48:58 - 197° (SSW) 2,733 6.3 -7.8°
Reaches altitude 10° 02:50:09 10° 197° (SSW) 2,270 5.9 -7.6°
Maximum altitude 02:55:17 85° 111° (ESE) 762 4.1 -6.9°
Drops below altitude 10° 03:00:29 10° 22° (NNE) 2,290 7.6 -6.2°
Sets 03:02:52 0° 22° (NNE) 3,222 8.4 -5.9°
